Terug naar catalogus

STARLINK-35992

ActiefCommunicatieVLEO
NORAD 66852·PAYLOAD·🇺🇸 United States

Gelanceerd Dec 2, 2025 vanaf Cape Canaveral Space Force Station

Loading…

Volgende Passages (komende 24 uur)

TLE

VersSource: CelesTrak SupGP

Epoch: Sep 15, 2026, 04:15 UTC

1 66852C 25281E   26258.17756944  .00043758  00000+0  15843-2 0  2588
2 66852  43.0014 353.2071 0001650 261.5946 213.5310 15.27568985    19

Volg STARLINK-35992 in realtime met AllMySat

Download on the App Store